Winchester, VA

11:01 PM EST on February 12, 2016 (GMT -0500)
Winchester Regional

Weather History for KOKV - November, 2012

Change the Weather History Date:

Monday, November 5, 2012

  Actual Average (KMRB) Record (KMRB)
Temperature  
Mean Temperature 38 °F 48 °F  
Max Temperature 46 °F 59 °F 81 °F (1975)
Min Temperature 30 °F 37 °F 23 °F (1998)
Degree Days  
Heating Degree Days 27 17  
Month to date heating degree days 83  
Since 1 July heating degree days 529  
Cooling Degree Days 0 0  
Month to date cooling degree days 0  
Year to date cooling degree days 895  
Moisture  
Dew Point 29 °F    
Average Humidity 73    
Maximum Humidity 93    
Minimum Humidity 53    
Precipitation  
Precipitation 0.00 in 0.10 in 1.09 in (1986)
Month to date precipitation 0.52  
Year to date precipitation 33.38  
Sea Level Pressure  
Sea Level Pressure 30.10 in    
Wind  
Wind Speed 5 mph (NW)    
Max Wind Speed 15 mph    
Max Gust Speed 23 mph    
Visibility 10 miles    
Events      
T = Trace of Precipitation, MM = Missing Value Source: NWS Daily Summary

Daily Weather History Graph

Daily Weather History Graph

Search for Another Location

Airport or City:

Trip Planner

Search our weather history database for the weather conditions in past years. The results will help you decide how hot, cold, wet, or windy it might be!

Date:

Astronomy

Nov. 05, 2012 Rise Set
Actual Time 6:45 AM EST 5:06 PM EST
Civil Twilight 6:17 AM EST 5:34 PM EST
Nautical Twilight 5:45 AM EST 6:06 PM EST
Astronomical Twilight 5:13 AM EST 6:37 PM EST
Moon 10:42 PM EST (11/5) 12:03 PM EST (11/5)
Length of Visible Light 11h 17m
Length of Day
10h 21m
Waning Gibbous, 63% of the Moon is Illuminated
Nov 5
Waning Gibbous
Nov 6
Last Quarter
Nov 13
New
Nov 20
First Quarter
Nov 28
Full

Hourly Weather History & Observations

Time (EST) Temp. Windchill Dew Point Humidity Pressure Visibility Wind Dir Wind Speed Gust Speed Precip Events Conditions
12:15 AM 32.0 °F 27.5 °F 28.4 °F 87% 30.06 in 10.0 mi West 4.6 mph - N/A   Scattered Clouds
12:35 AM 32.0 °F 28.7 °F 28.4 °F 87% 30.06 in 10.0 mi West 3.5 mph - N/A   Mostly Cloudy
12:55 AM 33.8 °F - 28.4 °F 81% 30.06 in 10.0 mi Calm Calm - N/A   Mostly Cloudy
1:15 AM 33.8 °F - 28.4 °F 81% 30.05 in 10.0 mi Calm Calm - N/A   Mostly Cloudy
1:35 AM 32.0 °F - 28.4 °F 87% 30.05 in 10.0 mi Calm Calm - N/A   Mostly Cloudy
1:55 AM 32.0 °F 28.7 °F 30.2 °F 93% 30.05 in 10.0 mi WNW 3.5 mph - N/A   Overcast
2:15 AM 33.8 °F - 30.2 °F 87% 30.05 in 10.0 mi Calm Calm - N/A   Overcast
2:35 AM 35.6 °F 32.8 °F 30.2 °F 81% 30.05 in 10.0 mi NNW 3.5 mph - N/A   Overcast
2:55 AM 35.6 °F 32.8 °F 28.4 °F 75% 30.06 in 10.0 mi NNW 3.5 mph - N/A   Overcast
3:15 AM 35.6 °F 31.7 °F 28.4 °F 75% 30.05 in 10.0 mi NW 4.6 mph - N/A   Overcast
3:35 AM 35.6 °F 29.2 °F 30.2 °F 81% 30.05 in 10.0 mi NW 8.1 mph - N/A   Overcast
3:55 AM 35.6 °F 29.9 °F 28.4 °F 75% 30.06 in 10.0 mi NW 6.9 mph - N/A   Overcast
4:15 AM 35.6 °F 32.8 °F 28.4 °F 75% 30.06 in 10.0 mi NNW 3.5 mph - N/A   Overcast
4:35 AM 35.6 °F 29.2 °F 28.4 °F 75% 30.06 in 10.0 mi NNW 8.1 mph - N/A   Overcast
4:55 AM 35.6 °F 30.7 °F 28.4 °F 75% 30.07 in 10.0 mi NNW 5.8 mph - N/A   Overcast
5:15 AM 35.6 °F 29.9 °F 28.4 °F 75% 30.07 in 10.0 mi NW 6.9 mph - N/A   Overcast
5:35 AM 35.6 °F 29.9 °F 28.4 °F 75% 30.07 in 10.0 mi NW 6.9 mph - N/A   Overcast
5:55 AM 35.6 °F 31.7 °F 28.4 °F 75% 30.08 in 10.0 mi NW 4.6 mph - N/A   Overcast
6:15 AM 35.6 °F 30.7 °F 28.4 °F 75% 30.08 in 10.0 mi NW 5.8 mph - N/A   Overcast
6:35 AM 35.6 °F 32.8 °F 28.4 °F 75% 30.08 in 10.0 mi NNW 3.5 mph - N/A   Mostly Cloudy
6:55 AM 35.6 °F 32.8 °F 28.4 °F 75% 30.08 in 10.0 mi NNW 3.5 mph - N/A   Overcast
7:15 AM 35.6 °F 32.8 °F 28.4 °F 75% 30.09 in 10.0 mi North 3.5 mph - N/A   Overcast
7:35 AM 35.6 °F 32.8 °F 28.4 °F 75% 30.10 in 10.0 mi NNW 3.5 mph - N/A   Overcast
7:55 AM 37.4 °F 34.9 °F 30.2 °F 75% 30.11 in 10.0 mi NNW 3.5 mph - N/A   Overcast
8:15 AM 37.4 °F 34.9 °F 30.2 °F 75% 30.11 in 10.0 mi North 3.5 mph - N/A   Overcast
8:35 AM 37.4 °F 33.8 °F 30.2 °F 75% 30.11 in 10.0 mi North 4.6 mph - N/A   Overcast
8:55 AM 37.4 °F 33.8 °F 30.2 °F 75% 30.11 in 10.0 mi North 4.6 mph - N/A   Overcast
9:15 AM 39.2 °F 35.0 °F 30.2 °F 70% 30.11 in 10.0 mi NNW 5.8 mph - N/A   Overcast
9:35 AM 41.0 °F 35.8 °F 30.2 °F 65% 30.11 in 10.0 mi NNW 8.1 mph 17.3 mph N/A   Mostly Cloudy
9:55 AM 41.0 °F 35.2 °F 28.4 °F 61% 30.11 in 10.0 mi NNW 9.2 mph - N/A   Mostly Cloudy
10:15 AM 41.0 °F 34.3 °F 30.2 °F 65% 30.11 in 10.0 mi NW 11.5 mph 17.3 mph N/A   Mostly Cloudy
10:35 AM 41.0 °F 34.3 °F 30.2 °F 65% 30.11 in 10.0 mi NW 11.5 mph - N/A   Scattered Clouds
10:55 AM 42.8 °F 36.2 °F 30.2 °F 61% 30.10 in 10.0 mi NNW 12.7 mph 23.0 mph N/A   Scattered Clouds
11:15 AM 42.8 °F 36.6 °F 30.2 °F 61% 30.11 in 10.0 mi WNW 11.5 mph - N/A   Mostly Cloudy
11:35 AM 44.6 °F 38.8 °F 30.2 °F 57% 30.10 in 10.0 mi NW 11.5 mph - N/A   Mostly Cloudy
11:55 AM 44.6 °F 39.2 °F 30.2 °F 57% 30.10 in 10.0 mi West 10.4 mph 16.1 mph N/A   Scattered Clouds
12:15 PM 44.6 °F 37.8 °F 30.2 °F 57% 30.08 in 10.0 mi WNW 15.0 mph - N/A   Scattered Clouds
12:35 PM 44.6 °F 38.8 °F 30.2 °F 57% 30.08 in 10.0 mi NW 11.5 mph 17.3 mph N/A   Clear
12:55 PM 46.4 °F 41.1 °F 32.0 °F 57% 30.08 in 10.0 mi WNW 11.5 mph 19.6 mph N/A   Clear
1:15 PM 46.4 °F 41.9 °F 32.0 °F 57% 30.07 in 10.0 mi NNW 9.2 mph 12.7 mph N/A   Scattered Clouds
1:35 PM 46.4 °F 42.4 °F 30.2 °F 53% 30.07 in 10.0 mi NW 8.1 mph - N/A   Scattered Clouds
1:55 PM 46.4 °F 41.1 °F 30.2 °F 53% 30.07 in 10.0 mi NW 11.5 mph 17.3 mph N/A   Scattered Clouds
2:15 PM 46.4 °F 42.4 °F 30.2 °F 53% 30.07 in 10.0 mi NNW 8.1 mph - N/A   Scattered Clouds
2:35 PM 44.6 °F 39.7 °F 30.2 °F 57% 30.06 in 10.0 mi NNW 9.2 mph 16.1 mph N/A   Scattered Clouds
2:55 PM 46.4 °F 41.1 °F 30.2 °F 53% 30.07 in 10.0 mi NW 11.5 mph 16.1 mph N/A   Scattered Clouds
3:15 PM 46.4 °F 41.9 °F 30.2 °F 53% 30.07 in 10.0 mi NW 9.2 mph - N/A   Scattered Clouds
3:35 PM 44.6 °F 39.2 °F 30.2 °F 57% 30.07 in 10.0 mi NW 10.4 mph - N/A   Clear
3:55 PM 44.6 °F 40.7 °F 30.2 °F 57% 30.07 in 10.0 mi NW 6.9 mph - N/A   Clear
4:15 PM 44.6 °F 40.2 °F 30.2 °F 57% 30.07 in 10.0 mi NW 8.1 mph - N/A   Clear
4:35 PM 44.6 °F 39.2 °F 30.2 °F 57% 30.07 in 10.0 mi NNW 10.4 mph - N/A   Clear
4:55 PM 42.8 °F 38.6 °F 30.2 °F 61% 30.08 in 10.0 mi NW 6.9 mph - N/A   Clear
5:15 PM 41.0 °F 36.4 °F 30.2 °F 65% 30.08 in 10.0 mi WNW 6.9 mph - N/A   Clear
5:35 PM 37.4 °F 32.8 °F 30.2 °F 75% 30.09 in 10.0 mi WNW 5.8 mph - N/A   Clear
5:55 PM 35.6 °F 30.7 °F 30.2 °F 81% 30.10 in 10.0 mi WNW 5.8 mph - N/A   Scattered Clouds
6:15 PM 35.6 °F 31.7 °F 30.2 °F 81% 30.11 in 10.0 mi West 4.6 mph - N/A   Clear
6:35 PM 35.6 °F 31.7 °F 30.2 °F 81% 30.13 in 10.0 mi West 4.6 mph - N/A   Scattered Clouds
6:55 PM 35.6 °F 29.9 °F 30.2 °F 81% 30.13 in 10.0 mi NW 6.9 mph - N/A   Scattered Clouds
7:15 PM 35.6 °F 30.7 °F 30.2 °F 81% 30.13 in 10.0 mi NNW 5.8 mph - N/A   Clear
7:35 PM 37.4 °F 32.8 °F 30.2 °F 75% 30.13 in 10.0 mi NNW 5.8 mph - N/A   Clear
7:55 PM 37.4 °F 33.8 °F 30.2 °F 75% 30.13 in 10.0 mi NNW 4.6 mph - N/A   Clear
8:15 PM 35.6 °F 32.8 °F 30.2 °F 81% 30.14 in 10.0 mi NNW 3.5 mph - N/A   Clear
8:35 PM 35.6 °F - 30.2 °F 81% 30.15 in 10.0 mi Calm Calm - N/A   Clear
8:55 PM 33.8 °F - 28.4 °F 81% 30.16 in 10.0 mi Calm Calm - N/A   Clear
9:15 PM 32.0 °F - 28.4 °F 87% 30.17 in 10.0 mi Calm Calm - N/A   Clear
9:35 PM 32.0 °F - 28.4 °F 87% 30.17 in 10.0 mi Calm Calm - N/A   Scattered Clouds
9:55 PM 32.0 °F - 28.4 °F 87% 30.18 in 10.0 mi Calm Calm - N/A   Clear
10:15 PM 32.0 °F - 28.4 °F 87% 30.17 in 10.0 mi Calm Calm - N/A   Clear
10:35 PM 30.2 °F - 28.4 °F 93% 30.17 in 10.0 mi Calm Calm - N/A   Clear
10:55 PM 30.2 °F - 28.4 °F 93% 30.17 in 10.0 mi Calm Calm - N/A   Scattered Clouds
11:15 PM 32.0 °F - 28.4 °F 87% 30.17 in 10.0 mi Calm Calm - N/A   Scattered Clouds
11:35 PM 30.2 °F - 28.4 °F 93% 30.16 in 10.0 mi Calm Calm - N/A   Clear
11:55 PM 30.2 °F - 28.4 °F 93% 30.16 in 10.0 mi Calm Calm - N/A   Clear